Terminal Aerodrome Forecast
Issued by NWS

Home | Current Version | Previous Version | Text Only | Print | Product List | Glossary On
Versions: 1 2 3 4 5 6 7 8 9 10 11 12 13 14 15 16 17 18 19 20 21 22 23 24
000
FTUS44 KOUN 172323
TAFCSM
TAF
KCSM 172323Z 1800/1824 21010KT P6SM SCT150 OVC250
     FM180900 26008KT P6SM OVC250
     FM181700 21010G15KT P6SM BKN250=

USA.gov is the U.S. government's official web portal to all federal, state and local government web resources and services.